Camp Pendleton, CA

9:39 AM PDT on July 25, 2016 (GMT -0700)
Camp Pendleton Marine Corps Air Station

Weather History for KNFG - March, 2012

Change the Weather History Date:

Thursday, March 22, 2012

  Actual Average Record
Temperature  
Mean Temperature 54 °F -  
Max Temperature 68 °F 65 °F 82 °F (2008)
Min Temperature 41 °F 45 °F 36 °F (2006)
Degree Days  
Heating Degree Days 10    
Growing Degree Days 4 (Base 50)    
Moisture  
Dew Point 45 °F    
Average Humidity 72    
Maximum Humidity 83    
Minimum Humidity 50    
Precipitation  
Precipitation 0.00 in - - ()
Sea Level Pressure  
Sea Level Pressure 29.95 in    
Wind  
Wind Speed 3 mph (South)    
Max Wind Speed 10 mph    
Max Gust Speed -    
Visibility 10 miles    
Events      
Averages and records for this station are not official NWS values.
T = Trace of Precipitation, MM = Missing Value Source: NWS Daily Summary

Daily Weather History Graph

Daily Weather History Graph

Search for Another Location

Airport or City:

Trip Planner

Search our weather history database for the weather conditions in past years. The results will help you decide how hot, cold, wet, or windy it might be!

Date:

Astronomy

Mar. 22, 2012 Rise Set
Actual Time 6:49 AM PDT 7:02 PM PDT
Civil Twilight 6:24 AM PDT 7:27 PM PDT
Nautical Twilight 5:56 AM PDT 7:56 PM PDT
Astronomical Twilight 5:26 AM PDT 8:26 PM PDT
Moon 6:33 AM PDT (3/22) 7:27 PM PDT (3/22)
Length of Visible Light 13h 02m
Length of Day
12h 13m
New Moon, 0% of the Moon is Illuminated
Mar 22
New Moon
Mar 30
First Quarter
Apr 6
Full
Apr 13
Last Quarter
Apr 21
New

Hourly Weather History & Observations

Time (PDT) Temp. Windchill Dew Point Humidity Pressure Visibility Wind Dir Wind Speed Gust Speed Precip Events Conditions
12:54 AM 45.0 °F 43.5 °F 39.0 °F 80% 29.98 in 10.0 mi ENE 3.5 mph - N/A   Partly Cloudy
1:54 AM 46.9 °F - 39.9 °F 77% 29.96 in 10.0 mi NE 3.5 mph - N/A   Clear
2:54 AM 44.1 °F - 39.0 °F 82% 29.95 in 10.0 mi Calm Calm - N/A   Clear
3:54 AM 41.0 °F - 36.0 °F 82% 29.94 in 10.0 mi Calm Calm - N/A   Clear
4:54 AM 42.1 °F - 37.0 °F 82% 29.93 in 10.0 mi Calm Calm - N/A   Clear
6:54 AM 41.0 °F - 36.0 °F 82% 29.95 in 10.0 mi Calm Calm - N/A   Clear
7:54 AM 45.0 °F - 39.9 °F 82% 29.95 in 10.0 mi Calm Calm - N/A   Scattered Clouds
8:54 AM 52.0 °F - 44.1 °F 74% 29.96 in 10.0 mi Calm Calm - N/A   Partly Cloudy
9:54 AM 61.0 °F - 48.0 °F 62% 29.95 in 10.0 mi Calm Calm - N/A   Partly Cloudy
10:54 AM 66.0 °F - 46.9 °F 50% 29.94 in 10.0 mi South 3.5 mph - N/A   Partly Cloudy
11:54 AM 68.0 °F - 50.0 °F 52% 29.94 in 10.0 mi SSW 9.2 mph - N/A   Partly Cloudy
12:54 PM 64.9 °F - 48.9 °F 56% 29.94 in 10.0 mi SSW 9.2 mph - N/A   Partly Cloudy
1:54 PM 66.0 °F - 48.9 °F 54% 29.92 in 10.0 mi SW 6.9 mph - N/A   Partly Cloudy
2:54 PM 66.0 °F - 48.0 °F 52% 29.91 in 10.0 mi SSW 10.4 mph - N/A   Partly Cloudy
3:54 PM 64.0 °F - 48.9 °F 58% 29.91 in 10.0 mi SSW 10.4 mph - N/A   Scattered Clouds
4:54 PM 62.1 °F - 50.0 °F 65% 29.91 in 10.0 mi SW 6.9 mph - N/A   Scattered Clouds
5:54 PM 61.0 °F - 48.0 °F 62% 29.90 in 10.0 mi SSW 5.8 mph - N/A   Scattered Clouds
6:54 PM 55.0 °F - 48.9 °F 80% 29.93 in 10.0 mi South 6.9 mph - N/A   Scattered Clouds
7:54 PM 53.1 °F - 48.0 °F 83% 29.93 in 10.0 mi South 4.6 mph - N/A   Scattered Clouds
8:05 PM 53.6 °F - 48.2 °F 82% 29.94 in 10.0 mi South 4.6 mph - N/A   Mostly Cloudy
8:54 PM 52.0 °F - 46.9 °F 83% 29.96 in 10.0 mi Calm Calm - N/A   Mostly Cloudy
9:54 PM 53.1 °F - 48.0 °F 83% 29.98 in 10.0 mi Calm Calm - N/A   Overcast
10:54 PM 54.0 °F - 48.9 °F 83% 30.00 in 10.0 mi SSE 5.8 mph - N/A   Overcast
11:54 PM 54.0 °F - 48.9 °F 83% 30.01 in 6.0 mi Calm Calm - N/A   Overcast